QPF
0.16 0.11 0.09 0.06 0.05 0.05 0.03 0.02 0.01 0.01 0.01 0.01 0.01 0.01 0.02 0.02 0.02 0.01 0.01 0.01 0.01 0.01 0.00 0.01 0.01 0.01 0.01 0.01 0.01 0.01 0.01 0.01 0.01 0.01 0.02 0.03 0.02 0.01 0.02 0.03 0.04 0.03 0.04
0.13 0.12 0.10 0.08 0.05 0.04 0.03 0.02 0.02 0.01 0.01 0.01 0.01 0.01 0.01 0.01 0.01 0.01 0.01 0.01 0.01 0.01 0.01 0.00 0.00 0.01 0.01 0.01 0.01 0.01 0.01 0.00 0.01 0.01 0.02 0.03 0.03 0.02 0.02 0.03 0.03 0.02 0.02
0.08 0.07 0.08 0.07 0.05 0.02 0.01 0.01 0.01 0.01 0.01 0.01 0.01 0.01 0.01 0.01 0.01 0.01 0.01 0.01 0.01 0.01 0.01 0.01 0.01 0.01 0.01 0.01 0.01 0.00 0.00 0.01 0.01 0.02 0.03 0.03 0.03 0.03 0.02 0.03 0.03 0.02 0.01
0.06 0.04 0.04 0.05 0.03 0.01 0.01 0.01 0.00 0.00 0.00 0.01 0.01 0.01 0.01 0.01 0.01 0.01 0.01 0.01 0.01 0.01 0.01 0.02 0.01 0.01 0.01 0.01 0.01 0.00 0.01 0.01 0.01 0.02 0.02 0.03 0.05 0.06 0.03 0.02 0.01 0.01 0.01
0.03 0.02 0.02 0.04 0.03 0.02 0.01 0.01 0.01 0.01 0.00 0.00 0.00 0.01 0.02 0.01 0.01 0.01 0.01 0.02 0.01 0.01 0.01 0.02 0.01 0.01 0.01 0.01 0.01 0.01 0.01 0.02 0.03 0.03 0.02 0.03 0.05 0.08 0.03 0.02 0.01 0.01 0.01
0.02 0.01 0.01 0.03 0.02 0.02 0.02 0.01 0.01 0.01 0.00 0.00 0.00 0.01 0.02 0.02 0.02 0.02 0.02 0.02 0.01 0.01 0.01 0.02 0.02 0.01 0.01 0.01 0.01 0.02 0.01 0.02 0.03 0.03 0.03 0.04 0.05 0.08 0.03 0.02 0.02 0.01 0.01
0.03 0.01 0.01 0.01 0.01 0.01 0.01 0.00 0.00 0.00 0.00 0.00 0.01 0.01 0.01 0.01 0.01 0.01 0.01 0.02 0.01 0.01 0.01 0.01 0.02 0.01 0.01 0.01 0.01 0.01 0.01 0.03 0.02 0.02 0.04 0.05 0.06 0.08 0.04 0.02 0.02 0.01 0.01
0.03 0.02 0.01 0.01 0.01 0.01 0.01 0.00 0.00 0.00 0.00 0.01 0.01 0.01 0.01 0.01 0.01 0.01 0.02 0.02 0.02 0.01 0.01 0.01 0.01 0.01 0.02 0.01 0.01 0.01 0.02 0.02 0.01 0.02 0.05 0.04 0.08 0.09 0.05 0.02 0.02 0.02 0.01
0.06 0.05 0.02 0.01 0.01 0.01 0.01 0.01 0.00 0.00 0.00 0.00 0.01 0.01 0.01 0.02 0.02 0.02 0.02 0.03 0.03 0.03 0.02 0.02 0.01 0.02 0.02 0.02 0.02 0.02 0.03 0.03 0.01 0.02 0.04 0.05 0.10 0.11 0.06 0.03 0.02 0.02 0.02
0.12 0.05 0.02 0.01 0.00 0.00 0.00 0.00 0.00 0.01 0.00 0.01 0.01 0.01 0.01 0.02 0.02 0.03 0.04 0.04 0.04 0.04 0.03 0.02 0.02 0.03 0.02 0.02 0.02 0.02 0.04 0.03 0.01 0.02 0.04 0.05 0.10 0.12 0.09 0.05 0.02 0.02 0.02
0.04 0.01 0.00 0.00 0.00 0.00 0.00 0.00 0.00 0.00 0.00 0.01 0.01 0.01 0.01 0.01 0.01 0.01 0.03 0.04 0.05 0.06 0.06 0.05 0.04 0.04 0.03 0.03 0.03 0.03 0.03 0.01 0.01 0.03 0.04 0.06 0.10 0.12 0.09 0.05 0.03 0.01 0.01
0.01 0.00 0.00 0.00 0.00 0.00 0.00 0.00 0.00 0.00 0.00 0.00 0.00 0.00 0.00 0.00 0.00 0.00 0.01 0.04 0.05 0.07 0.07 0.06 0.05 0.04 0.03 0.01 0.02 0.03 0.02 0.01 0.02 0.03 0.05 0.08 0.11 0.11 0.08 0.05 0.03 0.02 0.02
0.00 0.00 0.00 0.00 0.00 0.00 0.00 0.00 0.00 0.00 0.00 0.00 0.00 0.00 0.00 0.00 0.00 0.00 0.00 0.01 0.02 0.04 0.04 0.05 0.04 0.02 0.02 0.02 0.02 0.02 0.02 0.02 0.04 0.05 0.05 0.10 0.13 0.12 0.07 0.05 0.03 0.03 0.02
0.00 0.00 0.00 0.00 0.00 0.00 0.00 0.00 0.00 0.00 0.00 0.00 0.00 0.00 0.00 0.00 0.00 0.01 0.01 0.00 0.01 0.01 0.02 0.03 0.03 0.02 0.01 0.02 0.02 0.04 0.05 0.05 0.07 0.08 0.08 0.11 0.12 0.13 0.08 0.05 0.04 0.03 0.03
0.00 0.00 0.00 0.00 0.00 0.00 0.00 0.00 0.00 0.00 0.00 0.00 0.00 0.00 0.00 0.00 0.00 0.00 0.00 0.00 0.00 0.01 0.01 0.02 0.03 0.02 0.01 0.02 0.03 0.04 0.07 0.09 0.09 0.09 0.09 0.09 0.11 0.11 0.11 0.08 0.06 0.05 0.04
0.00 0.00 0.00 0.00 0.00 0.00 0.00 0.00 0.00 0.00 0.00 0.00 0.00 0.00 0.00 0.00 0.00 0.00 0.00 0.00 0.01 0.01 0.01 0.01 0.02 0.03 0.03 0.04 0.05 0.07 0.09 0.10 0.10 0.11 0.09 0.09 0.09 0.08 0.09 0.10 0.07 0.07 0.05
0.00 0.00 0.00 0.00 0.00 0.00 0.00 0.00 0.00 0.00 0.00 0.00 0.00 0.00 0.00 0.00 0.00 0.00 0.00 0.00 0.00 0.01 0.01 0.01 0.01 0.02 0.03 0.04 0.06 0.09 0.10 0.09 0.10 0.13 0.12 0.12 0.08 0.07 0.07 0.08 0.08 0.08 0.07
0.00 0.00 0.00 0.00 0.00 0.00 0.00 0.00 0.00 0.00 0.00 0.00 0.00 0.00 0.00 0.00 0.00 0.00 0.00 0.00 0.00 0.00 0.01 0.01 0.01 0.01 0.02 0.04 0.05 0.07 0.08 0.09 0.09 0.12 0.12 0.13 0.11 0.07 0.07 0.07 0.07 0.08 0.09
0.00 0.00 0.00 0.00 0.00 0.00 0.00 0.00 0.00 0.00 0.00 0.00 0.00 0.00 0.00 0.00 0.00 0.00 0.01 0.00 0.00 0.00 0.01 0.01 0.01 0.00 0.01 0.02 0.04 0.05 0.06 0.08 0.08 0.08 0.11 0.11 0.12 0.10 0.08 0.06 0.06 0.06 0.07
0.00 0.00 0.00 0.00 0.00 0.00 0.00 0.00 0.00 0.00 0.00 0.00 0.00 0.00 0.00 0.00 0.00 0.01 0.01 0.01 0.01 0.01 0.01 0.01 0.01 0.01 0.01 0.01 0.02 0.04 0.05 0.06 0.08 0.08 0.10 0.11 0.12 0.12 0.11 0.08 0.06 0.04 0.05
0.00 0.00 0.00 0.00 0.00 0.00 0.00 0.00 0.00 0.00 0.00 0.00 0.00 0.00 0.00 0.00 0.00 0.01 0.01 0.01 0.01 0.01 0.01 0.01 0.01 0.02 0.02 0.02 0.02 0.04 0.06 0.06 0.07 0.06 0.08 0.11 0.13 0.15 0.15 0.14 0.09 0.05 0.03
0.00 0.00 0.00 0.00 0.00 0.00 0.00 0.00 0.00 0.00 0.00 0.00 0.00 0.00 0.00 0.00 0.01 0.01 0.01 0.02 0.02 0.01 0.01 0.01 0.01 0.02 0.03 0.03 0.02 0.04 0.06 0.05 0.06 0.04 0.06 0.09 0.12 0.15 0.15 0.14 0.12 0.11 0.07
0.00 0.00 0.00 0.00 0.00 0.00 0.00 0.00 0.00 0.00 0.00 0.00 0.00 0.00 0.00 0.00 0.01 0.02 0.01 0.01 0.01 0.01 0.01 0.01 0.01 0.02 0.03 0.03 0.03 0.03 0.04 0.04 0.06 0.05 0.04 0.05 0.08 0.11 0.14 0.14 0.15 0.16 0.16
0.00 0.00 0.00 0.00 0.00 0.00 0.00 0.00 0.00 0.00 0.00 0.00 0.00 0.00 0.00 0.00 0.01 0.01 0.02 0.02 0.01 0.01 0.01 0.01 0.01 0.02 0.02 0.03 0.03 0.03 0.03 0.03 0.03 0.04 0.05 0.04 0.07 0.10 0.11 0.14 0.14 0.16 0.21
0.00 0.00 0.00 0.00 0.00 0.00 0.00 0.00 0.00 0.00 0.00 0.00 0.00 0.00 0.00 0.00 0.00 0.01 0.03 0.03 0.02 0.01 0.02 0.02 0.02 0.02 0.02 0.02 0.02 0.03 0.03 0.03 0.02 0.03 0.04 0.04 0.06 0.09 0.12 0.14 0.15 0.18 0.19
0.00 0.00 0.00 0.00 0.00 0.00 0.00 0.00 0.00 0.00 0.00 0.00 0.00 0.01 0.00 0.00 0.01 0.01 0.01 0.01 0.01 0.01 0.02 0.03 0.03 0.02 0.03 0.02 0.02 0.03 0.02 0.02 0.02 0.01 0.02 0.04 0.06 0.08 0.11 0.14 0.15 0.19 0.24
MSLP
1012.55 1012.06 1011.73 1011.59 1011.61 1011.73 1011.87 1011.98 1012.01 1011.96 1011.85 1011.72 1011.64 1011.62 1011.70 1011.84 1012.03 1012.22 1012.36 1012.44 1012.45 1012.41 1012.33 1012.26 1012.22 1012.22 1012.26 1012.33 1012.40 1012.45 1012.45 1012.39 1012.28 1012.13 1011.97 1011.81 1011.69 1011.60 1011.55 1011.49 1011.39 1011.21 1010.91
1012.49 1012.02 1011.72 1011.59 1011.62 1011.75 1011.90 1012.02 1012.07 1012.04 1011.96 1011.87 1011.81 1011.82 1011.90 1012.05 1012.22 1012.38 1012.51 1012.57 1012.57 1012.52 1012.44 1012.37 1012.31 1012.29 1012.30 1012.32 1012.36 1012.38 1012.37 1012.32 1012.24 1012.12 1011.99 1011.87 1011.76 1011.67 1011.60 1011.52 1011.42 1011.25 1011.00
1012.35 1011.92 1011.65 1011.56 1011.61 1011.76 1011.93 1012.07 1012.14 1012.14 1012.09 1012.03 1012.00 1012.02 1012.09 1012.21 1012.34 1012.47 1012.55 1012.59 1012.57 1012.52 1012.44 1012.37 1012.30 1012.26 1012.24 1012.24 1012.24 1012.24 1012.23 1012.20 1012.16 1012.09 1012.01 1011.93 1011.84 1011.76 1011.68 1011.61 1011.51 1011.38 1011.20
1012.17 1011.80 1011.58 1011.53 1011.62 1011.79 1011.98 1012.13 1012.22 1012.25 1012.22 1012.18 1012.15 1012.16 1012.21 1012.28 1012.37 1012.44 1012.48 1012.48 1012.45 1012.39 1012.32 1012.26 1012.20 1012.15 1012.12 1012.09 1012.08 1012.07 1012.07 1012.08 1012.08 1012.07 1012.04 1012.00 1011.95 1011.88 1011.81 1011.73 1011.66 1011.57 1011.47
1012.03 1011.73 1011.58 1011.57 1011.69 1011.87 1012.06 1012.22 1012.31 1012.33 1012.31 1012.27 1012.23 1012.22 1012.23 1012.26 1012.28 1012.29 1012.28 1012.25 1012.21 1012.16 1012.11 1012.07 1012.03 1012.00 1011.96 1011.93 1011.92 1011.92 1011.93 1011.97 1012.02 1012.06 1012.09 1012.09 1012.06 1012.01 1011.94 1011.88 1011.82 1011.78 1011.75
1011.98 1011.75 1011.65 1011.69 1011.82 1012.00 1012.18 1012.31 1012.37 1012.38 1012.34 1012.28 1012.23 1012.19 1012.16 1012.13 1012.10 1012.06 1012.01 1011.95 1011.91 1011.87 1011.85 1011.84 1011.83 1011.83 1011.81 1011.79 1011.79 1011.80 1011.84 1011.91 1011.99 1012.08 1012.15 1012.18 1012.17 1012.13 1012.06 1012.00 1011.96 1011.95 1011.98
1012.03 1011.86 1011.81 1011.88 1012.01 1012.17 1012.31 1012.39 1012.41 1012.37 1012.30 1012.22 1012.15 1012.08 1012.02 1011.96 1011.88 1011.80 1011.71 1011.64 1011.59 1011.57 1011.58 1011.61 1011.64 1011.67 1011.69 1011.69 1011.70 1011.73 1011.79 1011.88 1011.99 1012.10 1012.19 1012.25 1012.25 1012.20 1012.13 1012.07 1012.03 1012.05 1012.12
1012.16 1012.04 1012.03 1012.11 1012.23 1012.35 1012.43 1012.44 1012.40 1012.31 1012.21 1012.11 1012.02 1011.94 1011.86 1011.78 1011.68 1011.57 1011.46 1011.37 1011.32 1011.31 1011.34 1011.40 1011.48 1011.54 1011.59 1011.63 1011.66 1011.71 1011.78 1011.87 1011.99 1012.11 1012.21 1012.26 1012.26 1012.21 1012.13 1012.06 1012.03 1012.06 1012.15
1012.33 1012.25 1012.27 1012.35 1012.44 1012.51 1012.52 1012.46 1012.35 1012.22 1012.09 1011.97 1011.88 1011.81 1011.73 1011.65 1011.54 1011.41 1011.28 1011.18 1011.12 1011.11 1011.16 1011.24 1011.34 1011.44 1011.52 1011.59 1011.64 1011.70 1011.77 1011.87 1011.98 1012.09 1012.18 1012.22 1012.21 1012.15 1012.07 1011.99 1011.96 1011.99 1012.10
1012.47 1012.44 1012.48 1012.55 1012.62 1012.63 1012.58 1012.46 1012.29 1012.12 1011.97 1011.86 1011.78 1011.73 1011.68 1011.60 1011.49 1011.36 1011.22 1011.09 1011.01 1010.99 1011.03 1011.12 1011.23 1011.35 1011.46 1011.54 1011.61 1011.68 1011.75 1011.84 1011.94 1012.03 1012.09 1012.12 1012.10 1012.04 1011.96 1011.89 1011.87 1011.91 1012.02
1012.56 1012.56 1012.63 1012.70 1012.74 1012.71 1012.60 1012.44 1012.24 1012.05 1011.89 1011.80 1011.75 1011.72 1011.70 1011.64 1011.55 1011.41 1011.25 1011.10 1010.99 1010.94 1010.96 1011.03 1011.14 1011.26 1011.38 1011.48 1011.57 1011.64 1011.71 1011.79 1011.86 1011.93 1011.98 1011.99 1011.97 1011.92 1011.85 1011.80 1011.79 1011.85 1011.97
1012.57 1012.62 1012.71 1012.79 1012.81 1012.76 1012.62 1012.42 1012.21 1012.01 1011.87 1011.80 1011.78 1011.79 1011.80 1011.77 1011.68 1011.54 1011.36 1011.18 1011.04 1010.95 1010.93 1010.97 1011.06 1011.17 1011.29 1011.40 1011.50 1011.58 1011.65 1011.72 1011.78 1011.83 1011.86 1011.87 1011.85 1011.81 1011.77 1011.75 1011.77 1011.84 1011.98
1012.50 1012.60 1012.72 1012.82 1012.84 1012.78 1012.63 1012.43 1012.22 1012.04 1011.92 1011.87 1011.88 1011.92 1011.95 1011.93 1011.85 1011.71 1011.52 1011.32 1011.14 1011.00 1010.93 1010.93 1010.99 1011.09 1011.20 1011.31 1011.41 1011.50 1011.58 1011.64 1011.69 1011.73 1011.76 1011.77 1011.76 1011.75 1011.74 1011.76 1011.81 1011.91 1012.06
1012.38 1012.53 1012.68 1012.80 1012.84 1012.78 1012.65 1012.47 1012.28 1012.12 1012.02 1011.99 1012.02 1012.07 1012.11 1012.11 1012.03 1011.89 1011.69 1011.47 1011.26 1011.09 1010.98 1010.94 1010.96 1011.02 1011.12 1011.22 1011.33 1011.42 1011.50 1011.57 1011.63 1011.67 1011.69 1011.71 1011.72 1011.73 1011.76 1011.81 1011.90 1012.02 1012.18
1012.23 1012.42 1012.60 1012.74 1012.80 1012.78 1012.68 1012.54 1012.38 1012.26 1012.18 1012.16 1012.19 1012.23 1012.27 1012.26 1012.19 1012.05 1011.86 1011.63 1011.41 1011.22 1011.07 1010.99 1010.96 1010.99 1011.06 1011.15 1011.25 1011.35 1011.44 1011.52 1011.59 1011.63 1011.67 1011.69 1011.72 1011.75 1011.81 1011.89 1012.00 1012.13 1012.30
1012.08 1012.29 1012.49 1012.65 1012.74 1012.76 1012.72 1012.63 1012.53 1012.43 1012.37 1012.35 1012.36 1012.38 1012.39 1012.37 1012.30 1012.17 1012.00 1011.79 1011.58 1011.37 1011.20 1011.08 1011.02 1011.00 1011.04 1011.11 1011.20 1011.30 1011.40 1011.49 1011.57 1011.63 1011.67 1011.70 1011.73 1011.78 1011.84 1011.94 1012.05 1012.20 1012.36
1011.92 1012.13 1012.34 1012.52 1012.65 1012.73 1012.75 1012.73 1012.69 1012.63 1012.59 1012.55 1012.53 1012.51 1012.49 1012.45 1012.37 1012.26 1012.12 1011.94 1011.75 1011.56 1011.38 1011.23 1011.13 1011.07 1011.06 1011.10 1011.18 1011.27 1011.38 1011.48 1011.57 1011.64 1011.68 1011.71 1011.74 1011.78 1011.84 1011.93 1012.04 1012.18 1012.32
1011.76 1011.96 1012.16 1012.35 1012.52 1012.66 1012.76 1012.83 1012.85 1012.85 1012.81 1012.76 1012.70 1012.64 1012.57 1012.50 1012.42 1012.33 1012.22 1012.09 1011.94 1011.77 1011.59 1011.43 1011.29 1011.19 1011.13 1011.13 1011.18 1011.27 1011.38 1011.49 1011.58 1011.65 1011.69 1011.71 1011.73 1011.74 1011.78 1011.85 1011.94 1012.06 1012.20
1011.59 1011.76 1011.94 1012.14 1012.35 1012.56 1012.75 1012.91 1013.01 1013.06 1013.04 1012.98 1012.88 1012.77 1012.65 1012.55 1012.47 1012.39 1012.32 1012.24 1012.13 1011.99 1011.83 1011.65 1011.48 1011.34 1011.24 1011.21 1011.23 1011.30 1011.40 1011.50 1011.60 1011.66 1011.69 1011.70 1011.68 1011.67 1011.67 1011.71 1011.77 1011.87 1011.99
1011.41 1011.54 1011.70 1011.90 1012.16 1012.43 1012.72 1012.97 1013.15 1013.26 1013.27 1013.20 1013.06 1012.90 1012.74 1012.61 1012.52 1012.46 1012.43 1012.39 1012.32 1012.22 1012.07 1011.89 1011.70 1011.52 1011.39 1011.31 1011.30 1011.35 1011.44 1011.55 1011.64 1011.69 1011.70 1011.68 1011.63 1011.57 1011.54 1011.54 1011.57 1011.65 1011.76
1011.22 1011.31 1011.45 1011.66 1011.95 1012.29 1012.66 1013.00 1013.26 1013.43 1013.47 1013.39 1013.24 1013.04 1012.85 1012.69 1012.59 1012.54 1012.53 1012.53 1012.51 1012.44 1012.31 1012.13 1011.92 1011.72 1011.56 1011.45 1011.42 1011.46 1011.53 1011.63 1011.71 1011.75 1011.74 1011.68 1011.59 1011.49 1011.42 1011.38 1011.39 1011.45 1011.55
1011.04 1011.11 1011.22 1011.43 1011.75 1012.14 1012.57 1012.99 1013.33 1013.54 1013.62 1013.56 1013.40 1013.18 1012.96 1012.78 1012.67 1012.62 1012.64 1012.67 1012.67 1012.63 1012.52 1012.35 1012.14 1011.93 1011.75 1011.63 1011.59 1011.61 1011.68 1011.76 1011.83 1011.85 1011.82 1011.73 1011.60 1011.47 1011.35 1011.28 1011.26 1011.31 1011.40
1010.88 1010.93 1011.03 1011.24 1011.56 1011.99 1012.46 1012.93 1013.32 1013.59 1013.70 1013.66 1013.50 1013.28 1013.05 1012.86 1012.75 1012.71 1012.73 1012.78 1012.81 1012.79 1012.70 1012.54 1012.34 1012.14 1011.96 1011.84 1011.79 1011.81 1011.88 1011.96 1012.01 1012.02 1011.96 1011.84 1011.68 1011.52 1011.37 1011.27 1011.23 1011.25 1011.33
1010.75 1010.79 1010.89 1011.09 1011.41 1011.83 1012.32 1012.81 1013.24 1013.54 1013.68 1013.67 1013.54 1013.33 1013.11 1012.92 1012.81 1012.77 1012.80 1012.86 1012.90 1012.90 1012.83 1012.69 1012.52 1012.33 1012.17 1012.06 1012.03 1012.06 1012.12 1012.20 1012.25 1012.24 1012.16 1012.03 1011.85 1011.66 1011.49 1011.36 1011.30 1011.30 1011.36
1010.64 1010.69 1010.79 1010.97 1011.27 1011.67 1012.15 1012.64 1013.07 1013.39 1013.56 1013.59 1013.48 1013.31 1013.11 1012.95 1012.84 1012.82 1012.85 1012.91 1012.96 1012.97 1012.92 1012.81 1012.66 1012.50 1012.37 1012.29 1012.27 1012.31 1012.39 1012.46 1012.51 1012.50 1012.42 1012.27 1012.09 1011.88 1011.70 1011.55 1011.47 1011.44 1011.46
1010.53 1010.61 1010.70 1010.87 1011.13 1011.50 1011.94 1012.40 1012.82 1013.15 1013.34 1013.40 1013.35 1013.21 1013.06 1012.92 1012.84 1012.83 1012.86 1012.92 1012.98 1012.99 1012.96 1012.88 1012.76 1012.63 1012.54 1012.49 1012.49 1012.55 1012.64 1012.72 1012.77 1012.76 1012.69 1012.55 1012.37 1012.18 1011.99 1011.83 1011.72 1011.66 1011.63
Thickness
5771 5774 5773 5772 5771 5769 5768 5767 5767 5766 5766 5765 5765 5764 5764 5763 5763 5763 5763 5763 5763 5763 5764 5764 5764 5765 5765 5765 5766 5766 5767 5767 5767 5768 5768 5769 5769 5769 5770 5770 5770 5770 5771
5773 5772 5770 5769 5768 5767 5766 5764 5764 5763 5763 5762 5762 5761 5761 5760 5760 5760 5760 5760 5760 5760 5761 5762 5762 5762 5762 5763 5763 5764 5765 5765 5765 5766 5767 5767 5767 5768 5769 5769 5769 5769 5769
5771 5770 5768 5766 5765 5764 5763 5762 5761 5760 5760 5759 5758 5758 5757 5757 5757 5757 5757 5757 5757 5757 5758 5759 5759 5759 5760 5760 5761 5762 5763 5763 5764 5764 5765 5765 5766 5767 5767 5767 5768 5768 5768
5769 5767 5765 5763 5762 5761 5759 5759 5758 5757 5756 5756 5755 5754 5754 5753 5753 5753 5753 5753 5753 5754 5755 5755 5756 5757 5757 5758 5759 5759 5760 5761 5762 5763 5763 5764 5765 5765 5766 5766 5766 5767 5767
5766 5764 5762 5760 5759 5757 5756 5755 5754 5753 5753 5752 5751 5751 5750 5749 5749 5749 5749 5750 5750 5750 5751 5752 5753 5754 5754 5755 5756 5757 5758 5759 5760 5760 5761 5762 5763 5764 5764 5764 5765 5765 5765
5762 5761 5759 5758 5756 5754 5753 5752 5751 5750 5749 5748 5748 5747 5747 5746 5745 5745 5745 5745 5746 5746 5747 5748 5749 5750 5751 5752 5753 5754 5755 5757 5758 5758 5759 5760 5761 5762 5763 5763 5763 5764 5764
5759 5758 5756 5755 5754 5752 5750 5749 5747 5746 5745 5745 5744 5743 5743 5742 5741 5741 5741 5741 5742 5742 5743 5744 5745 5746 5748 5749 5750 5751 5753 5754 5755 5756 5757 5758 5759 5760 5761 5761 5762 5762 5762
5757 5755 5753 5752 5751 5749 5748 5746 5744 5743 5742 5741 5740 5739 5739 5738 5738 5737 5738 5737 5738 5738 5739 5740 5741 5743 5744 5746 5747 5749 5750 5751 5753 5754 5755 5756 5757 5759 5760 5760 5760 5760 5761
5756 5752 5750 5749 5748 5747 5745 5743 5741 5740 5738 5737 5736 5735 5735 5734 5734 5734 5734 5734 5734 5734 5735 5735 5737 5739 5741 5742 5744 5746 5747 5749 5750 5751 5753 5754 5756 5757 5758 5758 5758 5759 5759
5753 5750 5748 5747 5745 5743 5741 5739 5738 5736 5735 5734 5733 5732 5731 5730 5730 5730 5730 5730 5730 5730 5731 5732 5733 5735 5737 5738 5741 5743 5744 5746 5747 5748 5750 5752 5754 5756 5756 5757 5757 5757 5757
5748 5747 5746 5744 5742 5740 5738 5736 5734 5733 5731 5730 5729 5728 5728 5726 5726 5725 5725 5726 5726 5727 5727 5728 5729 5731 5732 5734 5737 5739 5741 5743 5744 5746 5748 5750 5752 5754 5755 5755 5756 5756 5756
5743 5744 5745 5743 5740 5737 5736 5733 5731 5730 5728 5727 5725 5724 5723 5722 5721 5721 5721 5721 5722 5723 5723 5724 5725 5726 5728 5730 5732 5735 5738 5739 5741 5743 5746 5748 5750 5752 5753 5754 5754 5754 5754
5743 5743 5742 5741 5738 5736 5733 5731 5728 5726 5725 5723 5721 5720 5719 5717 5717 5716 5715 5716 5716 5717 5718 5719 5720 5722 5723 5725 5728 5731 5734 5736 5738 5741 5744 5746 5748 5750 5751 5752 5753 5753 5753
5742 5741 5741 5740 5737 5734 5731 5728 5726 5723 5721 5720 5718 5716 5714 5713 5712 5711 5710 5710 5710 5711 5712 5713 5715 5716 5719 5721 5723 5727 5730 5733 5735 5738 5741 5744 5746 5748 5749 5750 5751 5751 5752
5740 5739 5738 5737 5734 5731 5728 5725 5723 5720 5718 5716 5714 5712 5710 5708 5706 5706 5705 5704 5705 5705 5706 5707 5709 5711 5713 5716 5719 5723 5726 5730 5732 5735 5738 5741 5743 5745 5747 5749 5749 5750 5751
5740 5738 5737 5735 5733 5729 5726 5723 5720 5718 5715 5712 5710 5708 5706 5704 5702 5700 5700 5699 5699 5700 5701 5702 5703 5706 5708 5711 5714 5718 5722 5726 5729 5732 5734 5737 5740 5743 5744 5746 5748 5748 5749
5740 5738 5736 5734 5731 5727 5724 5721 5718 5715 5712 5709 5706 5704 5702 5699 5698 5696 5694 5693 5693 5695 5695 5697 5699 5700 5702 5705 5708 5713 5717 5721 5725 5728 5731 5734 5737 5740 5742 5744 5745 5746 5747
5741 5738 5736 5734 5729 5725 5721 5718 5715 5712 5709 5705 5702 5700 5698 5696 5694 5691 5689 5688 5689 5689 5690 5691 5692 5693 5696 5698 5702 5707 5711 5716 5720 5724 5727 5730 5733 5736 5738 5741 5743 5744 5745
5741 5738 5734 5731 5727 5723 5720 5716 5713 5709 5706 5702 5700 5697 5695 5692 5690 5687 5685 5684 5684 5684 5685 5686 5687 5688 5689 5692 5697 5702 5706 5710 5714 5719 5722 5726 5729 5732 5735 5738 5740 5741 5743
5740 5737 5733 5729 5726 5722 5718 5714 5709 5706 5703 5700 5697 5694 5692 5689 5687 5684 5682 5680 5680 5679 5679 5680 5681 5683 5685 5688 5693 5697 5700 5705 5709 5713 5717 5721 5725 5728 5731 5734 5736 5738 5740
5738 5735 5731 5727 5724 5720 5715 5709 5705 5701 5699 5697 5695 5692 5690 5687 5684 5682 5679 5677 5676 5675 5674 5675 5676 5678 5680 5683 5685 5687 5693 5700 5704 5709 5712 5716 5720 5724 5727 5730 5733 5736 5738
5736 5734 5730 5727 5723 5719 5715 5710 5705 5701 5697 5695 5692 5690 5687 5685 5682 5680 5677 5674 5673 5672 5671 5671 5672 5672 5674 5678 5678 5678 5680 5687 5695 5703 5708 5711 5715 5719 5723 5727 5730 5732 5734
5736 5734 5732 5727 5723 5719 5715 5710 5705 5699 5695 5692 5689 5686 5685 5683 5680 5678 5675 5673 5671 5669 5668 5668 5669 5669 5669 5672 5675 5674 5673 5675 5683 5694 5701 5706 5710 5714 5718 5722 5726 5728 5730
5737 5735 5732 5727 5723 5719 5714 5709 5703 5696 5691 5689 5687 5684 5683 5681 5679 5676 5674 5672 5669 5667 5666 5666 5668 5668 5668 5667 5670 5674 5675 5677 5678 5682 5692 5699 5705 5709 5713 5718 5722 5724 5726
5738 5735 5731 5727 5722 5718 5714 5709 5703 5697 5693 5690 5687 5684 5681 5680 5677 5675 5673 5671 5668 5666 5666 5666 5666 5667 5667 5666 5667 5669 5671 5674 5677 5677 5680 5688 5696 5703 5709 5713 5717 5720 5722
5737 5734 5730 5726 5721 5718 5714 5709 5703 5698 5693 5689 5686 5682 5680 5677 5676 5674 5672 5670 5668 5666 5666 5666 5666 5666 5666 5666 5667 5668 5669 5670 5672 5675 5676 5681 5686 5694 5702 5707 5710 5714 5717